Wind_Speed
23 22 21 20 19 18 17 17 17 16 16 17 17 17 17 17 17 17 17 17 18 18 18 18 18 18 18 18 18 19 19 19 19 19 19 19 20 20 20 20 21 21 21 21 20 20 20 20 19 19 19 18 18 17 17 16 16 16 15 14 14 13 13 12 12 11 11 10 10 9 9 9 8 8 8 9 9 9 10 10 10 10 10 10 10 10
22 21 19 18 17 16 16 16 16 16 16 16 16 17 17 17 17 17 17 17 18 18 18 18 18 18 18 19 19 19 19 19 19 19 19 19 19 19 19 20 20 20 20 20 20 20 20 20 19 19 19 18 18 18 17 17 17 16 16 16 15 14 14 13 13 13 12 12 11 11 10 10 9 9 9 9 10 10 10 10 10 10 10 10 11 11
20 19 17 16 15 15 15 15 15 15 15 16 16 16 16 16 16 17 17 17 18 18 18 18 19 19 19 19 19 19 19 19 19 19 19 19 19 19 19 19 19 19 19 19 19 19 19 19 19 19 19 18 18 18 18 17 17 17 17 17 17 16 16 15 15 14 14 13 13 12 12 11 11 11 11 11 11 11 12 12 11 12 12 12 12 13
18 17 16 15 15 15 15 15 15 15 15 15 15 15 15 16 16 17 17 17 18 18 18 19 19 19 19 19 19 20 20 20 19 19 19 19 19 19 19 19 19 19 19 19 19 18 18 18 19 19 18 18 18 18 18 18 18 18 18 18 18 17 17 17 17 16 16 15 15 14 14 14 13 13 13 13 13 14 14 14 14 14 14 14 15 15
16 15 15 14 15 15 15 15 15 15 15 15 15 15 15 16 16 17 17 18 18 18 18 19 19 19 18 19 19 19 20 20 19 19 19 19 19 19 19 19 19 18 18 18 18 18 18 18 18 18 18 18 19 19 19 19 19 18 18 18 18 18 18 18 18 18 18 17 17 17 16 16 15 15 15 15 15 15 15 16 16 16 16 17 17 18
15 15 14 14 15 15 15 15 15 15 15 15 15 15 16 16 17 17 17 18 18 18 18 19 19 19 18 19 19 19 19 19 19 19 19 19 19 19 19 19 19 19 18 18 18 18 18 18 18 18 18 18 18 19 19 19 19 19 19 19 19 18 19 19 19 19 19 19 19 19 18 18 18 18 17 17 17 17 17 17 18 18 18 18 19 19
15 15 15 15 15 15 15 15 15 15 15 15 15 16 16 17 17 17 18 18 18 18 19 19 19 19 18 19 19 19 19 19 19 19 19 19 19 19 19 19 19 19 19 19 19 18 18 18 18 18 18 18 18 19 19 19 19 19 19 19 19 19 19 19 19 19 20 20 20 20 20 20 20 20 20 19 19 19 20 20 20 20 20 21 21 21
15 15 15 15 15 14 15 15 15 15 15 15 16 16 17 17 17 18 18 18 18 19 19 19 19 19 19 19 19 19 19 19 19 19 19 20 20 20 20 20 20 19 19 19 19 19 19 19 19 19 19 19 19 19 19 20 20 20 20 20 20 20 20 20 20 20 20 20 20 21 21 21 21 21 21 21 21 21 21 21 22 22 22 23 23 23
15 15 15 14 14 14 14 15 15 16 16 16 16 16 17 17 18 18 18 19 19 19 19 19 19 19 19 19 19 19 19 19 19 19 19 20 20 20 20 20 20 20 20 20 20 20 20 20 20 20 20 20 20 20 20 21 21 21 21 21 21 21 21 21 21 21 21 21 21 21 21 21 22 22 22 22 22 22 22 22 23 23 24 24 25 25
15 15 14 14 14 14 14 15 16 16 17 17 17 17 18 18 18 18 18 18 19 19 19 19 19 19 19 19 19 19 19 19 19 19 20 20 20 20 20 20 20 20 20 20 20 20 20 21 21 21 21 21 21 21 22 22 22 22 22 22 22 22 22 22 22 22 22 22 22 22 22 22 22 23 23 23 23 23 23 23 23 24 24 25 25 26
15 15 15 15 15 15 15 15 16 17 17 17 17 18 18 19 19 18 18 18 18 19 19 20 19 19 19 19 19 19 19 19 19 20 20 20 20 20 20 20 20 20 20 20 20 21 21 21 21 22 22 22 22 23 23 23 23 23 23 23 23 23 23 23 23 23 23 23 23 23 23 23 23 24 24 24 24 24 24 24 24 25 25 25 26 26
15 15 15 15 15 16 16 16 17 17 17 18 18 18 19 19 19 19 18 18 18 18 19 19 19 19 19 19 19 19 19 19 19 19 20 20 20 20 20 20 20 20 20 20 20 21 21 21 22 22 22 23 23 23 24 24 24 24 24 24 24 24 24 24 24 24 24 24 25 25 25 25 25 25 25 25 25 25 25 25 26 26 26 26 26 26
15 16 16 16 16 16 17 17 17 18 18 18 18 18 19 19 20 19 19 19 19 19 18 18 19 19 19 19 19 19 19 19 19 19 20 20 20 20 20 20 20 20 20 20 21 21 21 21 22 22 22 23 23 24 24 24 25 25 25 25 25 25 25 25 25 25 25 25 25 26 26 26 26 26 26 26 26 26 26 27 27 27 27 27 27 27
16 16 16 16 17 17 17 18 18 18 18 19 19 19 19 19 20 19 19 19 19 19 18 18 18 18 19 19 20 20 19 19 19 19 20 20 20 20 20 20 20 21 20 21 21 21 21 22 22 22 22 23 23 24 24 24 25 25 25 25 25 25 25 25 25 25 25 26 26 26 26 26 26 27 27 27 27 27 27 27 28 28 28 28 28 28
17 17 17 17 17 18 18 18 19 19 19 20 20 20 20 19 19 19 19 19 18 18 18 18 19 19 18 19 19 20 20 19 19 19 20 20 20 20 20 20 20 21 21 21 21 21 22 22 22 22 23 23 23 24 24 24 25 25 25 25 25 25 25 25 25 25 25 26 26 26 26 26 27 27 27 27 28 28 28 28 28 28 28 29 29 29
18 18 18 18 18 18 19 19 19 19 20 20 20 20 20 19 19 19 19 19 18 18 19 19 19 19 19 19 19 20 20 20 20 20 20 20 21 21 21 20 21 21 21 21 21 22 22 22 23 23 23 23 24 24 24 25 25 25 25 26 26 25 25 25 25 25 25 26 26 26 26 26 27 27 27 27 28 28 28 28 29 29 29 29 29 29
18 18 19 19 19 19 19 20 20 20 20 20 20 20 20 19 19 19 19 19 19 19 19 19 19 20 20 20 20 20 21 20 20 20 20 21 21 21 21 21 21 21 21 22 22 22 22 22 23 23 23 24 24 24 25 25 25 25 26 26 26 25 25 25 25 25 25 25 26 26 26 26 27 27 27 27 28 28 28 29 29 29 29 29 29 29
19 19 19 19 19 19 20 20 20 20 20 20 20 20 20 20 19 19 19 19 19 19 19 19 20 20 20 20 21 21 21 21 21 21 21 21 22 22 22 22 22 22 22 22 22 22 22 23 23 23 24 24 24 25 25 25 25 25 26 26 25 25 25 25 25 25 25 25 25 26 26 26 26 27 27 27 28 28 28 28 29 29 29 29 29 29
20 20 20 20 20 20 20 20 20 20 20 20 20 20 20 20 20 20 19 19 19 19 19 20 20 21 21 21 21 22 22 21 21 21 21 22 22 23 23 23 23 22 23 23 23 23 23 23 23 24 24 25 25 25 25 25 26 26 26 25 25 25 25 25 25 25 25 25 25 26 26 26 26 26 27 27 27 28 28 28 28 29 29 29 28 28
20 20 20 20 20 20 20 20 20 20 20 20 20 20 20 20 20 20 20 20 20 20 20 20 21 21 21 22 22 22 22 22 22 22 22 22 23 23 24 23 23 23 23 23 24 24 24 24 24 24 25 25 25 26 26 26 26 26 26 26 25 25 25 25 25 25 25 25 26 26 26 26 26 26 27 27 27 27 28 28 28 28 28 28 28 28
20 20 21 21 20 20 20 20 20 20 20 20 20 20 20 20 20 21 21 20 20 20 21 21 21 22 22 22 22 23 23 23 22 22 22 22 23 24 24 24 24 24 24 24 24 24 24 24 24 25 25 25 26 26 26 26 26 26 26 26 26 26 26 26 26 26 26 26 26 26 26 26 26 26 26 26 27 27 27 27 28 28 28 27 27 27
20 20 21 21 21 20 20 20 20 20 21 21 21 21 21 21 21 21 21 21 21 21 21 22 22 22 23 23 23 23 24 23 23 22 22 22 23 24 24 24 24 24 24 25 25 25 25 25 25 25 25 26 26 26 27 27 27 27 27 26 26 26 26 26 26 26 26 26 26 26 26 26 26 26 26 26 26 27 27 27 27 27 27 27 26 26
20 20 21 21 21 21 20 20 20 21 21 21 21 21 22 22 22 22 22 22 22 22 22 22 23 23 24 23 24 24 24 24 24 23 23 22 23 24 25 25 24 24 25 25 25 25 25 25 25 25 26 26 26 27 27 27 27 27 27 27 27 27 27 26 26 26 26 26 26 26 26 26 26 26 26 26 26 26 26 26 26 26 26 26 25 25
21 21 21 21 21 21 21 21 21 21 21 21 22 22 22 22 22 22 23 23 23 23 23 23 24 24 24 24 24 25 25 25 25 24 24 23 24 24 25 25 25 25 25 25 25 25 25 25 26 26 26 26 27 27 27 27 27 28 28 28 28 27 27 27 27 27 26 26 26 26 26 26 26 25 25 25 25 26 26 26 25 25 25 25 24 24
21 21 21 21 21 21 21 21 21 21 22 22 22 23 23 23 23 23 24 24 24 24 24 24 24 24 25 25 25 25 26 26 26 25 24 24 24 25 25 25 25 25 25 26 26 26 26 26 26 26 26 26 27 27 27 28 28 28 28 28 28 28 28 27 27 27 26 26 26 26 26 26 25 25 25 25 25 25 25 25 25 24 24 24 23 23
21 22 22 22 22 22 22 22 22 22 22 22 23 23 23 24 24 24 25 25 25 24 24 24 24 25 25 25 25 26 26 27 26 26 25 25 25 25 26 26 26 25 26 26 27 27 26 26 27 27 27 27 27 27 27 28 28 28 28 28 28 28 28 28 27 27 26 26 26 26 26 26 25 25 25 25 25 25 25 25 24 24 24 23 23 22
22 22 22 22 22 22 22 22 22 22 23 23 23 24 24 24 25 25 26 26 26 26 25 25 25 25 26 26 26 26 26 26 27 27 26 26 25 25 26 26 26 26 26 26 27 27 27 27 27 27 28 27 27 27 27 28 28 28 28 28 28 28 28 28 28 27 27 26 26 26 26 25 25 25 25 25 25 25 25 25 25 24 24 24 23 23
22 22 22 22 23 23 23 23 23 23 24 24 24 25 25 25 25 25 26 27 27 26 26 26 26 26 26 26 26 27 27 27 27 27 27 26 25 25 26 26 26 26 26 27 27 28 28 28 28 28 28 28 28 28 28 28 28 28 28 28 28 28 28 28 28 28 27 27 26 26 26 25 25 25 25 25 25 25 25 25 25 25 25 24 24 23
21 22 22 23 23 23 23 24 24 24 24 25 25 25 26 26 25 26 26 27 27 27 26 27 27 27 26 26 27 27 27 27 27 28 27 26 26 26 27 27 27 27 27 27 27 28 28 28 29 29 29 29 29 29 29 28 28 28 28 28 28 28 28 28 28 28 28 27 27 26 26 25 25 25 25 25 25 25 25 25 26 26 25 25 25 24
21 21 22 22 23 23 23 24 24 24 25 25 25 26 26 26 26 26 27 27 27 27 27 27 27 27 27 27 27 27 27 27 28 28 28 27 26 27 27 27 27 27 27 27 27 27 28 28 29 29 29 30 30 30 30 30 29 28 28 28 28 28 28 28 28 28 28 27 27 27 26 26 26 26 25 25 26 26 26 26 26 26 26 26 25 25
20 21 21 22 22 22 23 23 24 24 25 25 26 26 27 27 27 27 27 27 27 27 27 27 27 28 28 28 27 27 27 27 28 28 28 27 27 27 28 27 28 28 28 28 27 26 27 28 28 29 29 30 30 31 31 31 30 30 29 28 28 28 28 28 28 28 28 28 27 27 27 27 26 26 26 26 26 26 26 26 27 27 26 26 26 26
20 20 21 21 22 22 23 23 24 24 25 25 26 26 27 27 27 27 27 28 28 27 28 28 28 28 28 28 28 28 28 27 28 28 28 28 27 28 28 28 28 28 29 29 28 27 27 27 28 29 29 29 30 30 31 32 32 31 31 30 29 28 28 27 27 27 27 27 27 27 27 27 27 27 27 27 27 26 27 27 27 27 27 27 27 27
20 21 21 21 21 22 22 23 23 24 24 25 26 26 27 27 27 28 28 28 28 28 28 28 28 28 28 28 28 29 29 28 28 28 28 28 28 28 29 29 29 29 29 30 29 29 28 28 28 28 29 29 29 30 30 31 32 32 32 31 31 30 29 28 27 26 26 26 27 27 27 27 27 27 27 27 27 27 27 27 27 28 28 27 27 27
21 21 21 21 22 22 22 23 23 24 24 25 25 26 26 27 27 28 28 28 28 28 28 28 28 28 28 28 29 29 30 29 29 29 28 28 28 28 29 29 29 30 30 30 30 30 30 29 29 29 28 29 29 29 30 30 30 31 32 32 32 31 31 30 28 27 26 26 26 26 27 27 27 28 28 28 28 28 28 28 28 28 28 28 28 28
22 22 22 22 22 22 23 23 24 24 24 25 25 26 26 27 27 28 28 28 28 29 29 29 28 28 28 28 28 29 29 30 29 29 29 28 28 29 29 29 30 30 30 30 30 30 30 30 30 29 29 28 29 29 29 29 29 30 31 31 32 32 32 31 30 28 27 26 25 25 26 26 27 27 28 28 28 28 28 28 29 29 29 29 29 29
22 23 23 23 23 23 23 23 24 24 24 25 25 26 26 27 27 28 28 28 29 29 29 29 29 29 29 29 28 28 29 29 30 29 29 29 29 29 29 29 30 30 30 30 30 30 29 29 30 30 29 28 28 28 29 29 29 29 30 31 31 32 32 32 31 30 29 27 26 25 25 25 26 27 27 28 28 29 29 29 29 29 29 29 29 29
23 23 24 24 23 23 23 24 24 24 24 25 25 26 26 27 27 28 28 28 29 29 29 29 29 29 29 29 29 29 29 29 29 29 29 29 29 29 29 29 30 30 30 30 30 30 29 29 29 29 29 29 28 28 28 29 29 29 29 30 30 31 31 32 32 31 31 30 28 27 26 25 25 26 26 27 28 28 29 29 29 29 30 30 30 30
24 25 25 25 25 24 24 24 25 25 25 25 25 26 26 27 27 28 28 29 29 29 29 29 29 29 29 29 29 29 29 29 29 29 30 30 30 29 29 29 30 30 30 30 30 30 29 29 29 29 29 29 29 28 28 28 28 28 29 29 29 30 30 31 31 31 31 31 30 29 28 27 26 26 26 26 27 28 28 29 29 30 30 30 30 30
26 26 26 26 26 26 26 26 26 26 26 26 26 26 27 27 27 28 28 28 29 29 29 29 29 29 29 29 29 29 29 29 29 29 30 30 30 30 29 29 29 30 30 30 30 30 29 29 29 29 28 28 28 28 29 29 29 29 29 29 29 29 29 30 30 30 31 31 30 30 29 28 28 27 26 26 26 27 27 28 29 29 30 30 30 30
27 27 27 27 27 27 27 27 28 28 28 28 28 28 28 28 28 28 28 28 29 29 29 29 29 29 29 29 29 29 29 29 29 29 30 30 30 30 30 29 29 29 30 30 30 30 29 29 29 29 29 28 28 28 28 28 29 29 29 28 28 28 29 29 29 30 30 30 30 30 30 30 29 28 27 27 26 26 27 27 28 29 29 30 30 30
28 28 28 28 28 29 29 29 29 30 30 29 29 29 29 29 29 29 29 29 29 29 29 29 29 29 29 29 29 29 29 29 29 29 29 30 30 30 30 30 30 30 29 29 29 29 29 29 29 29 29 29 29 28 28 28 29 29 29 28 27 27 28 28 29 29 30 30 30 30 30 30 30 29 28 28 27 26 26 27 27 28 29 29 30 30
28 29 29 29 29 30 30 31 31 31 31 31 30 30 30 30 30 29 29 29 29 29 29 29 28 28 28 29 29 29 29 29 29 29 29 29 30 30 30 30 30 30 29 29 29 29 29 29 29 29 29 29 28 28 28 28 29 29 29 28 28 27 27 28 28 29 29 29 30 30 30 30 30 30 29 28 27 27 27 27 27 27 28 29 29 29
29 29 30 30 31 31 31 32 32 32 31 31 31 31 30 30 30 30 30 29 29 29 29 29 28 28 28 28 29 29 29 29 29 29 29 29 29 30 30 30 30 30 29 29 28 28 28 28 28 28 29 29 28 28 28 28 29 29 29 28 28 27 27 27 28 28 29 29 30 30 30 30 30 30 29 29 28 28 27 27 27 27 27 28 28 29
30 30 31 31 32 32 32 33 32 32 32 31 31 31 31 30 30 30 30 29 29 29 29 29 28 28 28 28 28 28 28 28 29 29 29 29 29 29 29 29 29 29 29 28 28 28 28 28 28 28 29 29 28 28 28 28 28 28 28 28 28 27 27 27 27 28 28 29 29 30 30 30 30 30 29 29 29 28 27 27 27 27 27 27 28 28
31 31 32 32 33 33 33 33 33 33 32 32 31 31 31 30 30 30 29 29 29 29 29 29 28 28 28 28 28 28 28 28 28 28 29 29 29 29 29 29 29 29 28 28 28 28 28 28 28 28 29 29 28 28 28 28 28 28 28 28 28 28 28 28 28 28 28 28 29 29 29 30 29 29 29 29 29 28 28 27 27 27 27 27 27 27
32 32 33 33 34 34 34 34 34 33 33 32 31 31 30 30 30 29 29 29 29 28 28 28 28 27 27 28 28 28 28 28 28 28 29 29 29 29 29 29 28 28 28 27 27 27 28 28 28 28 28 28 28 28 28 28 28 28 28 28 28 28 28 28 28 28 29 29 29 29 29 29 29 29 29 28 28 28 28 27 27 27 27 27 27 27
33 33 34 35 35 35 35 35 34 34 33 33 32 31 31 30 30 29 29 29 28 28 28 28 28 27 27 27 28 28 28 28 29 29 29 29 29 28 28 28 28 28 28 27 27 27 27 28 28 28 28 28 28 28 28 28 28 28 28 28 28 28 28 28 29 29 29 29 29 29 29 29 29 29 28 28 28 27 27 27 27 27 27 27 26 26
34 35 35 36 36 35 35 35 35 34 34 33 33 32 31 30 30 29 29 28 28 28 27 27 27 27 27 27 27 28 28 28 29 29 29 29 29 28 28 27 27 27 27 27 27 27 27 27 27 28 28 28 28 28 28 28 28 27 27 27 27 27 27 28 29 29 29 29 29 29 29 29 28 28 28 28 28 27 27 27 27 27 27 26 26 26
35 36 36 36 36 36 35 35 35 34 34 34 33 32 31 31 30 29 29 28 28 28 27 27 27 27 27 27 28 28 28 29 29 29 30 29 29 29 28 28 27 27 27 27 27 27 27 27 27 27 28 28 27 27 27 27 27 27 27 27 27 27 27 28 29 29 29 29 29 29 29 29 29 29 28 28 28 27 27 27 26 26 26 26 26 26
37 37 37 36 36 36 36 35 35 35 34 34 33 32 31 30 30 29 29 28 28 27 27 27 26 26 27 27 28 28 28 29 29 29 30 29 29 29 28 28 28 28 28 28 28 28 28 27 27 27 28 28 28 27 27 27 27 27 27 27 27 27 28 28 29 29 29 29 29 29 29 29 29 29 29 28 28 27 27 26 26 26 26 26 26 27
37 37 37 37 36 36 36 35 35 34 34 33 32 31 31 30 29 29 28 28 27 27 26 26 26 26 27 27 28 28 29 29 29 29 29 29 29 29 29 29 29 29 28 28 28 28 28 28 27 27 27 28 28 28 27 27 26 26 26 26 27 28 28 29 29 29 29 29 29 29 28 28 29 29 29 29 28 28 27 26 25 25 26 26 26 26
Wind_Direction
290 289 288 285 283 281 278 276 275 276 277 279 282 284 287 288 290 292 293 295 297 299 300 302 303 304 305 306 307 307 308 309 309 309 309 310 309 310 310 310 310 310 310 309 308 307 306 305 303 302 301 300 300 299 299 299 299 299 298 298 299 299 299 299 299 298 297 296 294 291 288 285 282 278 273 268 263 259 256 253 250 248 246 246 246 247
288 287 285 282 279 277 275 274 275 277 278 280 282 284 287 289 291 293 295 296 298 299 301 302 304 305 306 307 307 307 308 308 308 309 309 309 309 309 309 308 308 308 308 307 307 306 305 304 303 302 301 301 300 299 299 299 299 299 298 298 298 298 297 297 296 295 293 292 290 288 286 283 280 276 272 268 265 263 260 258 255 254 253 252 251 251
284 283 281 278 276 275 275 275 277 278 280 281 283 285 287 289 291 293 295 296 298 299 301 302 304 305 306 306 307 306 307 307 307 308 308 308 308 308 308 308 307 307 306 306 305 305 304 304 303 303 303 303 302 302 301 301 300 300 299 299 299 298 297 297 296 294 293 291 289 287 284 281 277 273 270 268 266 264 262 261 260 258 257 256 255 254
279 278 277 276 275 276 277 278 278 280 281 282 284 285 287 290 291 293 294 296 297 298 300 301 302 304 305 305 305 305 305 305 306 306 306 307 307 307 306 306 306 305 305 305 305 305 305 305 305 305 305 305 305 305 304 303 303 302 301 300 299 299 298 297 297 295 294 293 291 288 286 283 279 275 272 269 267 265 264 262 261 260 259 258 257 256
275 275 275 276 277 278 279 279 280 281 282 283 285 286 288 290 292 293 294 295 297 298 299 300 301 302 303 303 302 302 303 303 304 304 304 305 305 305 305 305 305 305 305 305 305 305 306 306 306 307 307 307 307 306 305 305 304 303 302 301 300 300 299 298 297 296 295 294 293 291 289 286 283 279 276 273 270 268 266 264 263 262 260 259 259 258
274 275 276 277 278 279 279 280 280 282 283 284 286 288 289 291 292 293 294 295 296 297 297 298 299 299 300 300 300 300 301 301 302 302 303 303 303 303 304 304 304 304 304 305 305 306 306 306 307 307 307 307 306 306 305 305 304 303 303 302 301 301 300 299 298 297 296 294 293 292 290 288 286 283 280 277 274 272 269 268 266 264 263 261 260 260
275 276 278 279 279 279 280 280 281 282 284 286 287 289 290 291 292 293 294 295 295 296 296 296 297 297 298 298 298 298 299 299 300 301 301 301 302 302 302 303 303 303 304 304 305 305 306 306 306 307 306 306 305 305 304 304 304 303 303 303 303 302 301 300 298 297 295 294 292 291 290 288 286 285 283 280 278 276 273 271 269 267 266 264 263 261
277 278 278 279 279 279 280 281 283 284 286 287 289 290 291 292 292 293 294 294 294 294 294 295 295 296 297 296 296 297 297 298 298 299 299 299 300 300 301 301 302 303 303 304 304 305 305 305 306 305 305 304 304 303 303 303 303 303 303 303 303 302 301 300 298 297 295 293 292 290 289 287 286 284 282 281 279 277 276 274 272 271 269 268 266 265
277 277 277 277 279 280 281 283 285 286 287 289 289 290 291 291 292 292 293 294 294 294 294 294 294 295 296 296 295 295 296 296 296 296 296 297 297 298 299 300 301 302 303 303 304 304 305 305 305 305 304 303 303 302 302 302 302 302 302 302 302 301 301 300 298 297 296 294 292 291 289 288 286 285 283 282 280 279 277 276 274 273 272 270 269 268
276 276 276 278 279 282 283 285 287 287 288 290 290 291 291 291 290 291 292 293 293 293 294 294 295 295 295 295 295 295 295 295 295 295 295 295 296 296 297 298 300 301 301 302 303 303 303 304 304 303 303 303 302 302 301 301 301 301 301 301 301 301 300 299 298 297 296 294 293 292 290 289 288 287 286 284 283 281 280 278 277 275 274 273 272 271
275 276 278 280 281 283 285 286 287 287 288 289 290 291 291 291 291 291 291 291 291 292 293 294 295 295 295 294 294 294 294 295 295 295 295 296 296 297 297 298 299 300 300 301 301 302 302 302 302 302 302 302 302 302 301 301 301 301 301 301 301 300 300 299 298 297 296 295 293 292 291 290 289 289 288 287 286 285 284 282 281 279 278 276 275 274
277 279 280 282 284 285 286 286 287 287 288 289 289 290 290 290 291 292 292 291 291 291 292 293 294 295 295 294 294 294 294 295 296 296 296 297 298 298 299 299 299 300 300 300 301 301 301 301 301 301 301 301 301 301 301 301 301 301 301 301 300 300 299 298 297 296 295 294 294 293 292 291 290 289 289 288 287 287 286 285 284 283 281 280 279 278
279 281 283 284 285 286 287 287 288 288 289 289 289 289 288 289 290 291 292 292 291 291 291 292 293 294 294 294 294 294 295 295 296 297 297 298 298 299 299 300 301 301 301 301 301 301 301 300 300 300 300 300 300 300 300 300 300 300 299 299 299 298 298 297 296 296 295 294 293 292 292 291 290 289 289 288 287 286 286 285 284 283 283 282 281 280
282 283 285 286 287 287 287 287 288 288 288 288 288 288 288 288 289 290 291 291 292 292 292 292 292 293 294 294 295 295 295 296 297 298 298 298 299 299 300 300 301 301 301 301 301 301 301 300 300 300 300 300 300 300 299 299 299 299 298 298 298 298 297 296 296 295 294 293 292 292 291 290 290 289 288 287 287 286 285 284 283 283 282 281 281 280
284 285 286 286 287 287 287 287 287 287 287 287 287 288 288 288 289 290 290 291 292 292 293 293 293 293 293 294 295 295 296 297 298 298 299 299 299 299 300 300 300 301 301 301 301 301 301 301 301 301 301 301 301 300 299 299 299 299 298 298 298 298 297 297 296 295 294 293 292 291 290 289 288 288 287 286 286 285 284 283 283 282 281 280 280 279
285 285 286 286 286 286 287 287 287 287 287 287 288 288 289 289 289 290 291 291 292 293 293 294 294 294 294 294 295 295 296 297 298 299 299 299 299 300 300 300 301 301 302 302 302 302 302 303 303 303 303 302 302 301 301 300 300 300 300 300 300 299 299 298 297 295 294 293 292 290 289 288 287 286 286 285 284 284 283 282 281 281 280 280 279 278
285 285 285 286 286 286 287 287 287 288 288 288 288 289 289 290 290 291 291 292 292 293 293 294 294 294 294 295 295 295 297 298 299 300 300 300 300 300 301 301 302 302 302 303 303 303 304 304 304 304 304 303 303 302 302 302 302 301 301 301 301 300 299 298 297 296 294 293 291 290 289 288 287 286 284 284 283 282 281 281 280 280 279 279 278 278
285 286 286 286 286 286 287 287 288 288 288 288 289 289 290 290 290 291 291 292 292 293 293 293 294 294 295 296 295 295 297 298 299 300 301 301 301 301 302 302 303 303 303 304 304 304 305 305 305 305 305 304 304 303 303 303 303 303 303 303 302 301 300 299 298 296 294 293 291 290 289 287 286 285 284 283 282 281 280 280 279 279 278 278 277 277
286 286 286 286 287 287 287 287 288 288 288 288 288 289 289 290 290 290 291 292 292 292 293 293 293 294 295 296 296 296 297 298 299 300 301 301 301 302 303 303 303 304 304 305 305 306 306 306 306 306 306 305 305 305 305 305 305 304 304 304 303 302 301 300 298 297 295 294 292 291 289 288 286 285 284 283 282 281 280 279 278 278 277 277 276 276
286 286 287 287 287 287 287 287 288 288 288 288 288 288 289 289 290 291 291 292 292 293 293 293 293 294 294 295 296 297 297 298 299 300 301 302 302 302 302 303 304 305 305 305 306 306 307 307 307 307 307 307 306 306 306 306 306 306 305 305 304 303 302 301 299 298 297 295 293 292 290 289 287 285 284 283 281 280 279 278 278 277 276 276 275 275
286 286 286 287 287 287 287 287 287 288 288 288 288 288 288 289 289 290 291 292 292 293 293 293 293 293 294 295 296 296 297 298 299 300 301 302 302 302 302 303 304 305 306 306 306 307 307 308 308 308 308 308 307 307 307 307 307 307 307 306 305 304 303 302 301 299 298 296 295 293 291 290 288 286 284 283 281 280 279 278 277 276 275 275 274 274
286 286 286 287 288 288 288 287 287 287 288 288 288 288 289 289 290 290 291 291 292 292 292 293 293 293 294 295 295 296 296 297 298 299 300 301 302 301 301 303 304 305 306 306 306 307 307 308 308 308 308 308 308 308 308 308 308 308 307 307 306 305 304 303 301 300 299 297 296 294 292 291 289 287 285 283 282 280 279 277 276 275 274 274 273 272
287 287 287 287 288 288 288 288 287 288 288 288 288 288 289 289 290 290 290 291 291 291 292 292 293 293 294 294 295 295 296 297 298 299 300 301 301 301 301 302 304 305 305 305 306 306 307 308 309 309 309 309 309 309 309 309 309 308 308 307 306 305 304 303 302 301 299 298 296 295 293 292 290 288 286 284 282 280 279 277 276 275 274 273 272 271
288 288 288 288 288 288 288 288 288 288 288 288 288 289 289 289 289 289 290 290 290 291 291 291 292 293 293 294 295 295 296 297 298 299 300 301 301 301 302 303 304 305 305 305 306 306 307 308 308 308 309 309 309 309 309 309 308 308 307 307 306 305 304 303 302 301 299 298 297 295 294 292 290 289 287 285 283 281 279 277 276 274 273 272 270 269
290 289 289 289 289 289 289 289 288 288 288 288 288 288 288 288 289 289 289 289 290 290 290 291 292 292 293 294 295 296 296 297 299 300 301 302 302 302 302 303 304 305 305 305 305 306 307 307 308 308 308 308 308 308 308 308 308 308 307 306 305 305 304 303 302 301 299 298 297 295 294 292 291 289 287 285 283 281 279 277 275 274 272 271 269 267
290 290 290 290 290 289 289 289 289 289 288 288 288 288 288 288 289 289 289 290 290 290 291 291 292 292 293 294 295 296 296 298 299 300 301 302 302 303 303 303 304 305 305 305 305 306 307 307 307 307 307 307 307 307 307 307 307 307 306 305 305 304 303 302 301 300 299 298 296 295 294 292 290 289 287 285 282 280 278 276 274 273 271 269 267 265
291 291 290 290 290 290 290 289 289 289 288 288 288 288 288 289 290 290 291 291 291 292 292 292 293 293 293 294 295 295 296 298 299 299 300 302 302 303 302 303 303 304 305 305 305 305 306 306 306 306 306 306 306 306 306 306 306 305 305 305 304 303 303 302 301 300 299 298 296 295 293 292 290 288 286 284 282 279 277 275 273 271 269 267 266 264
291 291 291 291 291 291 291 290 290 290 289 289 289 289 289 289 290 290 291 291 292 292 293 293 293 293 293 294 294 295 296 297 298 299 299 301 302 302 302 302 303 303 304 304 304 305 305 306 306 305 305 305 305 305 305 305 305 304 304 304 303 303 302 301 300 299 299 297 296 295 293 291 289 287 285 283 281 278 276 274 272 270 268 267 265 263
292 293 293 292 293 293 292 292 292 291 291 290 290 289 289 289 290 290 290 291 292 292 293 293 293 293 293 293 294 295 296 298 298 298 299 301 302 301 301 301 302 302 302 302 303 304 305 305 305 305 305 305 304 304 304 304 303 303 303 303 302 302 301 300 300 299 298 297 296 295 293 291 289 287 284 282 280 277 275 273 271 270 268 267 265 264
294 294 294 294 294 294 293 293 293 292 292 291 290 290 290 290 290 290 290 291 291 292 292 292 293 293 293 293 294 295 296 297 297 298 299 300 300 300 300 300 300 300 301 301 302 303 304 304 304 305 305 305 305 304 304 303 303 302 302 302 301 300 300 299 299 298 298 297 296 294 293 291 288 286 284 281 279 277 275 273 271 270 268 267 266 265
295 295 295 295 294 294 294 293 293 292 292 291 291 291 290 291 291 291 291 291 292 292 292 292 293 293 293 294 294 295 295 296 296 296 298 299 299 299 299 299 299 299 299 300 302 302 303 303 303 303 304 304 305 304 304 303 303 302 302 301 300 299 298 298 298 297 297 296 295 294 292 290 288 286 284 281 279 277 274 273 271 270 269 268 267 266
295 295 295 295 295 294 294 294 293 293 293 292 292 292 292 292 292 292 292 292 292 292 293 293 293 293 293 294 294 294 294 294 295 295 296 297 298 298 298 298 299 299 299 300 301 302 302 302 302 302 303 303 304 304 304 304 303 303 302 301 300 299 297 297 296 296 295 295 294 293 292 290 288 286 284 281 279 277 275 273 271 270 269 268 267 267
295 295 295 295 295 295 295 294 294 294 293 293 293 292 292 292 292 292 292 292 292 293 293 293 293 293 293 294 294 294 294 294 294 295 296 297 298 298 298 299 299 300 300 301 302 302 303 303 302 302 302 302 303 303 303 303 303 302 302 301 300 299 297 296 295 294 293 293 292 291 290 289 287 285 284 282 279 277 275 273 272 271 270 269 268 267
297 297 296 296 296 296 295 295 294 294 293 293 293 292 292 292 292 292 292 293 293 293 293 293 293 293 293 293 294 294 294 295 295 295 296 297 298 298 299 300 300 300 301 302 302 302 303 302 302 302 302 302 302 301 301 301 301 301 301 301 300 299 298 297 295 294 292 290 289 288 287 286 285 284 283 281 279 278 276 274 272 271 270 269 268 267
299 299 299 299 299 298 298 297 296 296 295 294 293 293 292 292 292 292 292 293 293 293 293 293 293 293 293 293 294 294 294 295 295 296 297 298 299 299 300 300 301 301 301 301 302 302 302 302 302 302 302 302 301 301 300 300 300 300 300 300 299 299 298 298 296 295 293 290 288 286 284 283 283 282 281 280 279 277 276 274 273 272 271 269 268 267
302 302 302 302 302 302 301 301 300 299 298 297 296 295 294 294 293 293 293 293 293 293 293 294 294 294 294 294 294 294 295 295 296 297 298 299 300 300 301 301 301 301 301 301 301 301 301 301 301 301 301 301 301 300 300 299 299 299 298 298 298 298 298 298 297 296 294 292 289 286 283 281 280 279 278 278 277 276 275 274 273 272 271 270 269 268
304 304 304 304 304 304 304 303 303 302 301 300 299 298 297 296 295 294 294 293 293 293 293 294 294 294 294 295 295 295 296 296 297 298 299 300 300 301 301 301 301 301 301 301 301 300 300 301 301 301 301 301 301 300 300 299 299 298 298 297 297 297 297 297 297 296 295 293 291 288 285 282 279 277 276 275 275 274 273 273 272 271 270 269 268 268
304 305 305 305 305 305 305 304 304 304 303 302 301 300 299 298 297 296 295 294 294 294 293 293 294 294 294 295 296 296 297 298 299 300 300 301 301 301 301 301 301 300 300 300 300 300 301 301 301 301 301 301 301 301 300 300 299 298 297 297 296 296 296 296 295 295 294 294 292 290 288 285 281 278 276 274 273 272 271 271 270 270 269 268 268 267
304 305 305 304 304 304 305 304 304 304 304 303 302 301 300 299 298 297 296 295 294 294 294 293 293 294 294 295 296 296 297 298 299 300 301 301 301 301 301 301 301 300 300 300 301 301 301 302 302 302 302 302 302 302 301 301 300 299 298 297 297 296 296 295 294 294 293 293 292 291 289 287 285 282 278 275 273 271 270 269 268 268 267 267 267 266
304 304 304 304 304 304 304 304 304 304 303 303 302 301 300 299 298 298 297 296 295 294 294 294 294 294 295 295 296 296 297 298 299 299 300 301 301 301 301 301 301 300 301 301 301 302 302 303 303 303 303 303 303 303 302 302 301 299 299 298 298 297 296 295 294 293 292 291 291 290 289 288 287 284 282 279 276 273 271 269 268 267 266 266 265 265
302 303 303 303 303 303 304 304 303 303 303 302 302 301 300 300 299 298 297 296 295 295 295 294 294 295 295 295 295 296 296 297 298 299 299 300 301 301 301 301 301 301 301 301 302 302 303 303 304 304 304 304 304 304 303 302 301 300 299 299 298 297 296 295 294 293 292 291 290 289 289 288 287 286 284 282 279 276 273 271 269 267 266 265 265 264
301 301 302 302 303 303 303 303 303 303 302 302 302 301 300 300 299 298 297 296 296 295 294 294 294 294 294 294 295 295 296 296 297 298 299 300 301 301 302 302 302 301 302 302 302 303 303 303 304 304 304 304 304 304 303 302 301 300 300 299 299 298 297 295 294 293 292 291 290 289 288 287 287 286 285 284 282 280 277 274 271 269 268 266 266 265
300 300 301 301 302 303 303 303 303 303 302 302 302 301 300 299 299 298 297 296 295 294 294 293 293 293 293 293 293 294 295 296 297 298 299 300 301 302 302 302 302 301 302 302 302 303 303 303 303 304 304 304 304 304 303 302 301 301 300 300 299 299 297 295 294 293 292 291 290 289 288 287 287 286 285 284 283 282 280 277 275 272 270 269 267 266
299 299 300 301 302 302 302 303 303 303 303 303 302 301 300 300 299 298 297 295 294 293 293 292 292 292 291 291 291 292 293 295 297 298 300 300 301 301 302 301 301 301 301 302 302 302 302 303 303 303 303 304 304 304 303 302 302 301 301 300 300 299 297 296 294 292 291 290 289 288 287 287 286 286 285 285 284 283 282 280 278 276 273 271 270 268
298 299 300 300 301 301 302 302 302 303 303 302 302 301 300 299 298 297 296 294 293 292 291 291 291 291 290 290 291 292 293 294 296 298 299 300 301 301 301 300 300 300 301 301 301 302 302 303 303 303 303 304 304 304 303 303 302 302 301 301 300 299 298 296 294 293 291 290 289 288 287 286 286 286 286 285 285 284 283 282 280 279 277 275 273 271
298 298 299 299 300 300 301 301 302 302 302 302 301 300 299 298 297 295 294 293 292 291 290 290 290 290 290 290 291 292 294 295 296 297 299 300 300 300 300 300 300 300 300 301 301 302 302 303 303 304 304 304 305 304 304 303 303 302 302 301 301 300 298 297 295 293 292 291 289 288 287 287 286 286 286 285 285 284 284 283 281 280 279 277 276 274
297 297 298 298 299 299 300 300 301 301 301 301 301 300 299 297 296 294 293 292 291 290 290 290 290 290 290 291 292 293 294 296 297 298 299 299 299 299 299 299 299 300 300 301 301 302 303 303 304 304 305 305 304 304 303 303 303 302 302 301 300 299 298 297 295 294 293 292 290 289 288 287 287 286 286 285 284 284 283 282 282 281 280 279 278 276
296 296 297 297 298 298 299 299 300 300 300 300 300 299 298 296 295 294 292 291 290 290 290 290 290 291 291 292 293 293 294 296 297 298 299 299 299 298 298 298 299 299 300 300 301 302 302 303 304 304 305 304 304 303 303 303 303 302 302 301 300 299 297 296 295 294 293 292 291 290 289 289 288 287 286 285 284 283 282 282 281 281 281 280 279 277
295 296 296 297 297 297 298 298 299 299 299 299 299 298 297 296 295 293 292 291 290 290 290 290 290 290 291 292 292 293 295 296 297 299 299 299 299 299 298 298 298 298 299 299 300 301 302 303 304 304 304 304 303 303 302 302 302 302 302 301 300 298 297 296 295 294 293 292 292 291 291 290 289 288 287 285 283 282 281 281 281 281 280 280 279 278
295 296 296 296 296 296 297 297 297 298 298 298 298 297 296 295 294 293 292 291 290 290 290 289 290 290 290 291 292 293 294 296 298 299 299 299 299 299 299 299 298 299 299 299 300 301 302 303 304 304 304 304 303 303 303 303 303 303 302 301 300 299 297 296 295 294 294 293 293 293 292 291 290 289 288 286 284 283 282 281 280 280 279 279 278 278
295 296 296 296 296 296 296 296 296 297 297 297 297 296 295 294 293 292 291 290 289 289 289 289 289 289 289 290 291 292 294 296 297 298 298 298 298 299 299 299 299 299 300 300 300 301 302 303 304 304 304 303 303 303 303 303 303 303 302 301 300 299 298 296 295 295 294 294 293 293 293 292 291 289 288 287 286 285 284 282 281 280 279 279 278 278
Height
3088 3088 3088 3087 3087 3087 3087 3086 3086 3086 3085 3085 3085 3084 3084 3083 3083 3082 3082 3081 3080 3080 3080 3079 3079 3078 3077 3077 3076 3076 3075 3075 3074 3073 3073 3072 3071 3071 3070 3069 3069 3068 3067 3067 3066 3066 3065 3065 3065 3064 3064 3063 3063 3062 3062 3061 3061 3060 3060 3059 3059 3058 3058 3057 3057 3057 3056 3056 3056 3056 3056 3055 3056 3056 3056 3056 3056 3056 3056 3056 3056 3057 3057 3058 3058 3059
3086 3086 3086 3086 3086 3086 3085 3085 3085 3085 3084 3084 3083 3083 3082 3082 3081 3081 3080 3080 3079 3079 3078 3077 3077 3076 3076 3075 3075 3074 3074 3073 3073 3072 3072 3071 3070 3070 3069 3069 3068 3067 3067 3066 3066 3065 3065 3064 3064 3063 3062 3062 3061 3061 3060 3060 3059 3059 3058 3058 3058 3057 3057 3056 3056 3056 3055 3055 3055 3055 3055 3055 3055 3055 3055 3055 3055 3055 3056 3056 3056 3056 3056 3057 3057 3058
3085 3085 3085 3085 3085 3085 3084 3084 3084 3083 3083 3083 3082 3082 3081 3080 3080 3080 3079 3078 3078 3077 3077 3076 3075 3075 3075 3074 3073 3073 3072 3072 3071 3071 3070 3070 3069 3069 3068 3068 3067 3066 3066 3065 3065 3064 3064 3063 3062 3062 3061 3060 3060 3060 3059 3059 3058 3057 3057 3056 3056 3056 3055 3055 3055 3055 3055 3055 3055 3054 3055 3055 3055 3055 3055 3055 3055 3055 3055 3055 3055 3056 3056 3056 3057 3057
3084 3084 3084 3084 3084 3083 3083 3083 3082 3082 3082 3081 3081 3080 3080 3079 3079 3078 3078 3077 3076 3076 3075 3075 3074 3074 3073 3073 3072 3071 3071 3071 3070 3070 3069 3069 3068 3068 3067 3067 3066 3065 3065 3064 3064 3063 3062 3062 3061 3060 3060 3059 3059 3058 3057 3057 3056 3056 3055 3055 3055 3054 3054 3054 3054 3053 3053 3053 3053 3053 3053 3053 3054 3054 3054 3054 3054 3054 3054 3055 3055 3055 3055 3055 3056 3056
3082 3082 3082 3082 3082 3082 3082 3081 3081 3081 3080 3080 3080 3079 3079 3078 3077 3077 3076 3076 3075 3075 3074 3074 3073 3073 3072 3072 3071 3070 3070 3070 3069 3069 3068 3068 3067 3066 3066 3065 3065 3064 3064 3063 3063 3062 3061 3060 3060 3059 3059 3058 3057 3057 3056 3055 3055 3055 3054 3054 3053 3053 3053 3052 3052 3052 3052 3052 3052 3052 3052 3052 3052 3052 3052 3053 3053 3053 3053 3053 3054 3054 3054 3054 3055 3055
3081 3081 3081 3081 3081 3080 3080 3080 3080 3080 3079 3079 3078 3078 3077 3077 3076 3076 3075 3075 3074 3073 3073 3072 3072 3072 3071 3071 3070 3070 3069 3069 3068 3068 3067 3066 3066 3065 3065 3064 3064 3063 3063 3062 3061 3061 3060 3060 3059 3058 3057 3057 3056 3055 3055 3055 3054 3054 3053 3053 3052 3052 3051 3051 3051 3051 3050 3050 3050 3050 3050 3050 3050 3050 3051 3051 3051 3051 3051 3052 3052 3052 3053 3053 3053 3054
3080 3080 3080 3080 3080 3080 3079 3079 3079 3078 3078 3077 3077 3076 3076 3075 3075 3074 3074 3073 3073 3072 3072 3071 3071 3070 3070 3070 3069 3069 3068 3067 3067 3066 3066 3065 3065 3064 3064 3063 3062 3062 3061 3061 3060 3060 3059 3058 3058 3057 3056 3056 3055 3055 3054 3053 3053 3052 3052 3051 3051 3051 3050 3050 3050 3050 3049 3049 3049 3049 3049 3049 3049 3049 3049 3049 3049 3049 3050 3050 3050 3050 3051 3051 3051 3052
3079 3079 3079 3078 3078 3078 3078 3077 3077 3077 3076 3076 3075 3075 3075 3074 3074 3073 3072 3072 3071 3071 3070 3070 3070 3069 3069 3068 3068 3067 3067 3066 3066 3065 3065 3064 3064 3063 3062 3062 3061 3061 3060 3060 3059 3058 3058 3057 3056 3056 3055 3055 3054 3053 3053 3052 3052 3051 3051 3050 3050 3050 3049 3049 3049 3048 3048 3048 3048 3047 3047 3047 3047 3047 3047 3047 3047 3047 3048 3048 3048 3048 3049 3049 3049 3050
3077 3077 3077 3077 3077 3076 3076 3076 3075 3075 3075 3074 3074 3074 3073 3073 3072 3072 3071 3071 3070 3069 3069 3069 3068 3068 3067 3067 3066 3066 3065 3065 3065 3064 3063 3063 3062 3062 3061 3060 3060 3059 3059 3058 3057 3057 3056 3055 3055 3054 3054 3053 3052 3052 3051 3051 3050 3050 3049 3049 3049 3048 3048 3048 3047 3047 3047 3046 3046 3046 3046 3045 3045 3045 3045 3045 3045 3045 3045 3045 3046 3046 3046 3046 3046 3047
3076 3076 3076 3075 3075 3075 3075 3074 3074 3074 3073 3073 3072 3072 3071 3071 3070 3070 3070 3070 3069 3068 3067 3067 3067 3067 3066 3065 3065 3065 3064 3064 3063 3063 3062 3061 3061 3060 3060 3059 3059 3058 3057 3057 3056 3055 3055 3054 3053 3053 3052 3051 3051 3050 3050 3049 3049 3048 3048 3047 3047 3047 3046 3046 3046 3045 3045 3045 3045 3044 3044 3044 3043 3043 3043 3043 3043 3043 3043 3043 3043 3044 3044 3044 3044 3044
3075 3075 3074 3074 3074 3074 3073 3073 3072 3072 3071 3071 3071 3070 3070 3069 3069 3069 3069 3068 3068 3067 3066 3066 3065 3065 3065 3064 3064 3063 3063 3062 3062 3061 3060 3060 3060 3059 3058 3058 3057 3057 3056 3055 3055 3054 3053 3053 3052 3051 3050 3050 3049 3049 3048 3047 3047 3046 3046 3046 3045 3045 3045 3044 3044 3044 3043 3043 3042 3042 3042 3042 3041 3041 3041 3041 3041 3040 3040 3040 3041 3041 3041 3041 3041 3041
3074 3073 3073 3073 3072 3072 3071 3071 3071 3070 3070 3070 3069 3069 3068 3067 3067 3067 3067 3067 3066 3066 3065 3065 3064 3064 3063 3063 3062 3062 3061 3061 3060 3060 3059 3058 3058 3057 3057 3056 3056 3055 3055 3054 3053 3053 3052 3051 3050 3050 3049 3048 3048 3047 3046 3046 3045 3045 3044 3044 3044 3043 3043 3042 3042 3042 3041 3041 3040 3040 3040 3040 3039 3039 3039 3039 3038 3038 3038 3038 3038 3038 3038 3038 3038 3039
3072 3072 3071 3071 3071 3070 3070 3070 3069 3069 3068 3068 3068 3067 3067 3066 3065 3065 3065 3065 3064 3064 3064 3063 3063 3062 3061 3061 3060 3060 3060 3059 3059 3058 3057 3057 3056 3055 3055 3055 3054 3053 3053 3052 3052 3051 3050 3050 3049 3049 3048 3047 3046 3046 3045 3044 3044 3043 3043 3042 3042 3041 3041 3041 3040 3040 3040 3039 3039 3038 3038 3037 3037 3037 3037 3036 3036 3036 3036 3036 3035 3035 3035 3035 3035 3035
3071 3070 3070 3070 3069 3069 3068 3068 3068 3067 3067 3066 3066 3065 3065 3065 3064 3064 3063 3063 3063 3062 3062 3061 3061 3061 3060 3060 3059 3058 3058 3058 3057 3057 3056 3055 3055 3054 3054 3053 3052 3052 3051 3051 3050 3050 3049 3048 3048 3047 3046 3046 3045 3044 3044 3043 3042 3042 3041 3041 3040 3040 3040 3039 3039 3038 3038 3037 3037 3036 3036 3035 3035 3035 3035 3034 3034 3034 3034 3033 3033 3033 3033 3033 3033 3033
3070 3069 3069 3068 3068 3068 3067 3066 3066 3066 3065 3065 3064 3064 3063 3063 3063 3062 3062 3061 3061 3060 3060 3060 3059 3059 3059 3058 3057 3057 3056 3056 3056 3055 3055 3054 3053 3053 3052 3052 3051 3050 3050 3049 3048 3048 3047 3046 3046 3045 3045 3044 3043 3043 3042 3041 3040 3040 3040 3039 3039 3038 3038 3037 3037 3036 3036 3035 3035 3034 3034 3034 3033 3033 3032 3032 3032 3031 3031 3031 3031 3031 3031 3030 3030 3030
3068 3068 3067 3067 3067 3066 3065 3065 3065 3064 3064 3063 3063 3062 3062 3061 3061 3060 3060 3060 3059 3059 3059 3058 3058 3057 3057 3057 3056 3055 3055 3055 3054 3054 3053 3052 3051 3051 3050 3050 3049 3049 3048 3047 3047 3046 3045 3045 3044 3043 3043 3042 3041 3041 3040 3039 3039 3038 3038 3037 3037 3036 3036 3035 3035 3034 3034 3033 3033 3032 3032 3031 3031 3031 3030 3030 3030 3030 3029 3029 3029 3029 3028 3028 3028 3028
3066 3066 3066 3065 3065 3065 3064 3063 3063 3063 3062 3061 3061 3060 3060 3060 3059 3059 3058 3058 3058 3057 3057 3057 3056 3055 3055 3055 3055 3054 3053 3053 3052 3052 3051 3050 3050 3049 3049 3048 3048 3047 3046 3045 3045 3044 3044 3043 3042 3041 3041 3040 3039 3039 3038 3037 3037 3036 3036 3035 3035 3034 3034 3033 3033 3032 3032 3031 3031 3030 3030 3030 3029 3029 3028 3028 3028 3027 3027 3027 3026 3026 3026 3026 3026 3026
3065 3065 3064 3064 3064 3063 3063 3062 3061 3061 3060 3060 3060 3059 3059 3058 3058 3057 3057 3056 3056 3056 3055 3055 3055 3054 3053 3053 3053 3052 3051 3051 3051 3050 3050 3049 3048 3047 3046 3046 3045 3045 3045 3044 3043 3042 3042 3041 3040 3040 3039 3038 3037 3037 3036 3035 3035 3035 3034 3033 3033 3032 3032 3031 3031 3030 3030 3029 3029 3028 3028 3027 3027 3027 3026 3026 3025 3025 3025 3025 3025 3024 3024 3024 3024 3024
3063 3063 3063 3062 3062 3061 3061 3060 3060 3059 3059 3058 3058 3057 3057 3056 3056 3056 3055 3055 3055 3054 3054 3054 3053 3052 3052 3051 3051 3050 3050 3049 3049 3048 3048 3047 3046 3045 3045 3044 3044 3043 3043 3042 3041 3040 3040 3039 3038 3038 3037 3036 3035 3035 3034 3034 3033 3033 3032 3031 3031 3030 3030 3029 3029 3028 3028 3027 3027 3026 3026 3025 3025 3025 3024 3024 3023 3023 3023 3023 3022 3022 3022 3022 3022 3022
3062 3061 3061 3060 3060 3060 3060 3059 3058 3058 3057 3057 3056 3056 3055 3055 3055 3054 3054 3053 3053 3053 3052 3052 3051 3051 3050 3050 3049 3048 3048 3047 3047 3046 3046 3045 3044 3043 3043 3042 3042 3041 3040 3040 3039 3039 3038 3037 3036 3036 3035 3034 3033 3033 3032 3031 3031 3030 3030 3030 3029 3028 3028 3027 3027 3026 3025 3025 3025 3024 3024 3023 3023 3022 3022 3022 3021 3021 3021 3020 3020 3020 3020 3020 3020 3020
3060 3060 3059 3059 3058 3058 3058 3057 3057 3056 3056 3055 3055 3054 3054 3053 3053 3053 3052 3052 3051 3051 3050 3050 3050 3049 3048 3048 3047 3046 3046 3045 3045 3045 3044 3043 3042 3041 3041 3040 3040 3039 3039 3038 3037 3036 3036 3035 3035 3034 3033 3032 3031 3031 3030 3030 3029 3028 3028 3027 3027 3026 3025 3025 3025 3024 3023 3023 3022 3022 3021 3021 3021 3020 3020 3020 3019 3019 3019 3018 3018 3018 3018 3018 3018 3018
3059 3058 3058 3057 3057 3056 3056 3056 3055 3055 3054 3054 3053 3052 3052 3052 3051 3051 3050 3050 3050 3049 3049 3048 3048 3047 3047 3046 3045 3045 3044 3044 3043 3043 3042 3042 3041 3040 3039 3038 3038 3037 3037 3036 3035 3035 3034 3033 3033 3032 3031 3030 3030 3029 3028 3027 3027 3026 3026 3025 3025 3024 3023 3023 3022 3022 3021 3020 3020 3020 3019 3019 3018 3018 3018 3017 3017 3017 3016 3016 3016 3016 3016 3016 3015 3015
3057 3057 3056 3056 3055 3055 3054 3054 3053 3053 3052 3052 3051 3051 3050 3050 3050 3049 3049 3048 3048 3047 3047 3046 3046 3045 3045 3044 3043 3043 3042 3041 3041 3041 3040 3040 3039 3038 3037 3036 3036 3035 3035 3034 3033 3033 3032 3031 3031 3030 3029 3028 3028 3027 3026 3025 3025 3024 3024 3023 3022 3022 3021 3021 3020 3020 3019 3018 3018 3017 3017 3016 3016 3015 3015 3015 3015 3014 3014 3014 3014 3014 3014 3014 3014 3014
3055 3055 3055 3054 3053 3053 3052 3052 3052 3051 3050 3050 3049 3049 3048 3048 3047 3047 3047 3046 3046 3045 3045 3045 3044 3043 3043 3042 3041 3041 3040 3039 3039 3039 3038 3038 3037 3036 3035 3035 3034 3033 3033 3032 3031 3031 3030 3030 3029 3028 3027 3026 3025 3025 3024 3023 3023 3022 3021 3021 3020 3020 3019 3018 3018 3017 3017 3016 3015 3015 3015 3014 3014 3013 3013 3013 3012 3012 3012 3012 3011 3011 3011 3011 3012 3012
3053 3053 3052 3052 3051 3051 3050 3050 3050 3049 3049 3048 3047 3047 3046 3046 3045 3045 3045 3044 3044 3044 3043 3043 3042 3041 3040 3040 3039 3039 3038 3037 3036 3036 3036 3035 3035 3034 3033 3032 3032 3031 3030 3030 3029 3029 3028 3028 3027 3026 3025 3025 3024 3023 3022 3021 3021 3020 3019 3019 3018 3017 3017 3016 3015 3015 3015 3014 3013 3013 3012 3012 3011 3011 3011 3010 3010 3010 3010 3010 3009 3009 3009 3010 3010 3010
3051 3051 3050 3050 3050 3049 3049 3048 3048 3047 3047 3046 3045 3045 3044 3044 3043 3043 3042 3042 3042 3041 3041 3040 3040 3039 3038 3038 3037 3036 3036 3035 3034 3034 3033 3033 3033 3032 3031 3030 3030 3029 3029 3028 3027 3026 3026 3025 3025 3024 3023 3023 3022 3021 3020 3020 3019 3018 3017 3016 3015 3015 3014 3014 3013 3013 3012 3012 3011 3010 3010 3010 3009 3009 3009 3008 3008 3008 3007 3007 3007 3007 3007 3007 3007 3008
3050 3049 3049 3048 3048 3047 3047 3046 3046 3045 3045 3044 3044 3043 3042 3042 3041 3041 3040 3040 3039 3039 3039 3038 3038 3037 3036 3036 3035 3034 3034 3033 3032 3031 3031 3031 3030 3030 3029 3028 3028 3027 3026 3026 3025 3024 3024 3023 3022 3022 3021 3020 3020 3019 3018 3017 3017 3016 3015 3014 3013 3013 3012 3011 3011 3010 3010 3009 3009 3008 3008 3007 3007 3007 3006 3006 3006 3005 3005 3005 3005 3005 3005 3005 3005 3006
3048 3047 3047 3046 3046 3045 3045 3045 3044 3043 3043 3042 3042 3041 3040 3040 3039 3039 3038 3037 3037 3036 3036 3036 3035 3035 3034 3034 3033 3032 3032 3031 3030 3029 3029 3029 3028 3028 3027 3026 3025 3025 3024 3024 3023 3022 3021 3020 3020 3019 3019 3018 3017 3017 3016 3015 3015 3014 3013 3012 3011 3010 3010 3009 3008 3008 3007 3007 3006 3006 3005 3005 3005 3004 3004 3004 3004 3003 3003 3003 3003 3003 3003 3003 3003 3004
3046 3046 3045 3045 3044 3043 3043 3042 3042 3041 3041 3040 3040 3039 3038 3038 3037 3037 3036 3035 3035 3035 3034 3034 3033 3033 3032 3032 3031 3030 3030 3029 3028 3027 3026 3026 3026 3025 3025 3024 3023 3023 3022 3021 3021 3020 3019 3018 3017 3016 3016 3015 3015 3014 3014 3013 3012 3012 3011 3010 3009 3008 3007 3007 3006 3005 3005 3005 3004 3004 3003 3003 3002 3002 3002 3001 3001 3001 3001 3001 3001 3000 3001 3001 3001 3002
3045 3044 3043 3043 3042 3041 3041 3040 3040 3039 3039 3038 3037 3037 3036 3036 3035 3035 3034 3034 3033 3033 3032 3031 3031 3030 3030 3030 3029 3028 3028 3027 3026 3025 3024 3024 3024 3023 3023 3022 3021 3020 3020 3019 3019 3018 3017 3016 3015 3014 3013 3012 3012 3011 3010 3010 3010 3009 3009 3008 3007 3006 3005 3005 3004 3003 3002 3002 3001 3001 3001 3000 3000 3000 3000 2999 2999 2999 2999 2999 2998 2998 2999 2999 2999 3000
3043 3043 3042 3041 3040 3040 3039 3039 3038 3037 3037 3036 3035 3035 3034 3034 3033 3033 3032 3032 3031 3030 3030 3030 3029 3028 3028 3027 3027 3026 3026 3025 3024 3023 3022 3022 3021 3021 3020 3020 3019 3018 3017 3017 3016 3016 3015 3015 3013 3012 3011 3010 3009 3008 3008 3007 3007 3006 3006 3005 3005 3004 3003 3002 3002 3001 3000 3000 2999 2999 2998 2998 2998 2997 2997 2997 2997 2996 2996 2996 2996 2996 2996 2996 2997 2997
3042 3041 3040 3040 3039 3039 3038 3037 3036 3036 3035 3034 3034 3033 3032 3032 3031 3030 3030 3030 3029 3028 3028 3027 3027 3026 3025 3025 3025 3024 3024 3023 3022 3021 3020 3020 3019 3019 3018 3017 3016 3015 3015 3014 3014 3014 3013 3013 3012 3010 3010 3009 3007 3006 3005 3004 3004 3003 3003 3002 3002 3001 3001 3000 3000 2999 2998 2997 2997 2996 2996 2995 2995 2995 2995 2995 2994 2994 2994 2994 2994 2994 2994 2994 2995 2995
3040 3040 3039 3038 3038 3037 3036 3035 3035 3034 3033 3033 3032 3031 3030 3030 3029 3028 3028 3027 3027 3026 3026 3025 3025 3024 3023 3023 3022 3021 3021 3020 3020 3019 3018 3017 3017 3016 3015 3015 3014 3013 3012 3012 3011 3011 3010 3010 3009 3009 3008 3007 3005 3004 3003 3002 3001 3000 2999 2999 2999 2998 2998 2998 2997 2997 2996 2995 2995 2994 2994 2993 2992 2992 2992 2992 2992 2992 2992 2992 2991 2991 2992 2992 2992 2992
3038 3038 3037 3037 3036 3035 3035 3034 3033 3033 3032 3031 3030 3029 3029 3028 3027 3026 3026 3025 3024 3024 3023 3023 3022 3022 3021 3020 3020 3019 3018 3018 3017 3017 3016 3015 3015 3014 3013 3012 3012 3011 3010 3010 3009 3008 3007 3007 3006 3006 3005 3005 3004 3002 3001 3000 2999 2998 2997 2996 2995 2995 2995 2995 2995 2994 2994 2994 2993 2992 2991 2991 2990 2990 2990 2990 2989 2989 2989 2989 2989 2989 2989 2989 2990 2990
3036 3036 3035 3035 3034 3034 3033 3032 3031 3031 3030 3029 3028 3027 3027 3026 3025 3024 3024 3023 3022 3021 3021 3020 3020 3019 3019 3018 3018 3017 3016 3015 3015 3015 3014 3013 3012 3012 3011 3010 3009 3009 3008 3007 3006 3006 3005 3004 3004 3003 3002 3002 3001 3000 2999 2998 2997 2996 2995 2994 2992 2992 2991 2991 2991 2991 2991 2991 2990 2990 2990 2989 2988 2988 2987 2987 2987 2987 2987 2987 2987 2987 2987 2987 2987 2987
3034 3033 3033 3032 3032 3031 3030 3030 3029 3029 3028 3027 3026 3025 3025 3024 3023 3022 3021 3020 3020 3019 3018 3018 3017 3016 3016 3015 3015 3015 3014 3013 3012 3012 3011 3011 3010 3010 3009 3008 3007 3006 3005 3005 3004 3003 3003 3002 3001 3000 3000 2999 2999 2998 2997 2996 2995 2994 2993 2991 2990 2989 2988 2988 2988 2987 2988 2988 2988 2988 2987 2987 2986 2986 2985 2985 2985 2984 2984 2984 2984 2984 2984 2984 2984 2984
3032 3031 3031 3030 3030 3029 3028 3028 3027 3026 3026 3025 3024 3023 3022 3021 3020 3020 3019 3018 3017 3017 3016 3015 3015 3014 3013 3013 3012 3012 3011 3010 3010 3009 3009 3008 3008 3007 3006 3005 3005 3004 3003 3002 3001 3001 3000 3000 2999 2998 2997 2997 2996 2995 2994 2994 2993 2992 2990 2989 2988 2987 2986 2985 2985 2984 2984 2984 2984 2984 2984 2984 2984 2984 2983 2983 2982 2982 2982 2982 2982 2982 2982 2982 2982 2982
3030 3029 3029 3028 3027 3027 3026 3025 3025 3024 3024 3023 3022 3021 3020 3019 3019 3018 3017 3016 3015 3014 3014 3013 3012 3012 3011 3010 3010 3009 3009 3008 3007 3007 3006 3005 3005 3005 3004 3003 3002 3001 3000 3000 2999 2998 2998 2997 2996 2996 2995 2994 2994 2993 2992 2991 2990 2989 2988 2987 2986 2985 2984 2983 2982 2982 2981 2981 2980 2981 2981 2981 2981 2981 2981 2980 2980 2980 2980 2980 2979 2979 2979 2979 2979 2979
3028 3027 3026 3026 3025 3025 3024 3024 3023 3022 3021 3020 3020 3019 3018 3017 3016 3015 3015 3014 3013 3012 3011 3010 3010 3009 3009 3008 3007 3007 3006 3005 3005 3004 3003 3003 3002 3002 3001 3000 3000 2999 2998 2997 2996 2996 2995 2994 2994 2993 2992 2992 2991 2990 2989 2988 2987 2986 2986 2985 2984 2983 2982 2981 2980 2979 2979 2978 2978 2977 2977 2977 2978 2978 2978 2978 2978 2978 2978 2977 2977 2977 2977 2977 2977 2977
3026 3025 3025 3024 3023 3023 3022 3021 3020 3020 3019 3018 3017 3016 3015 3015 3014 3013 3012 3011 3011 3010 3009 3008 3008 3007 3006 3006 3005 3004 3004 3003 3002 3002 3001 3000 3000 2999 2999 2998 2997 2996 2996 2995 2994 2993 2992 2992 2991 2990 2990 2989 2988 2987 2987 2985 2985 2984 2983 2982 2982 2981 2980 2979 2978 2977 2976 2975 2975 2975 2974 2974 2974 2974 2975 2975 2975 2975 2975 2975 2975 2974 2974 2974 2974 2974
3024 3023 3022 3022 3021 3020 3020 3019 3018 3017 3016 3016 3015 3014 3013 3012 3012 3011 3010 3009 3008 3008 3007 3006 3005 3005 3004 3003 3002 3002 3001 3000 3000 2999 2999 2998 2997 2996 2996 2995 2995 2994 2993 2992 2992 2991 2990 2989 2988 2987 2987 2986 2985 2985 2984 2983 2982 2981 2980 2980 2979 2979 2978 2977 2975 2975 2974 2973 2972 2972 2971 2971 2971 2971 2971 2971 2972 2972 2972 2972 2972 2972 2971 2971 2972 2972
3021 3021 3020 3020 3019 3018 3017 3016 3015 3015 3014 3013 3012 3012 3011 3010 3009 3009 3008 3007 3006 3005 3005 3004 3003 3003 3002 3001 3000 2999 2999 2998 2997 2997 2996 2995 2995 2994 2993 2993 2992 2991 2991 2990 2989 2988 2987 2987 2986 2985 2984 2983 2983 2982 2981 2980 2979 2978 2978 2977 2976 2976 2975 2974 2973 2972 2971 2970 2970 2969 2969 2968 2968 2968 2968 2968 2968 2969 2969 2969 2969 2969 2969 2969 2969 2969
3019 3018 3018 3017 3016 3015 3015 3014 3013 3012 3011 3011 3010 3009 3008 3007 3006 3006 3005 3005 3004 3003 3002 3002 3001 3000 3000 2999 2998 2997 2996 2995 2995 2994 2994 2993 2992 2992 2991 2990 2989 2989 2988 2988 2987 2986 2985 2984 2984 2983 2982 2981 2980 2980 2979 2978 2977 2976 2975 2975 2974 2973 2973 2972 2971 2970 2969 2968 2967 2966 2966 2965 2965 2965 2965 2965 2965 2965 2965 2965 2966 2966 2966 2966 2966 2966
3016 3016 3015 3015 3014 3013 3012 3011 3010 3010 3009 3008 3007 3006 3005 3005 3004 3003 3002 3002 3001 3000 3000 2999 2999 2998 2997 2997 2996 2995 2995 2994 2993 2992 2991 2991 2990 2989 2989 2988 2987 2986 2985 2985 2985 2984 2983 2982 2981 2980 2980 2979 2978 2977 2976 2975 2975 2974 2973 2972 2971 2971 2970 2969 2968 2967 2966 2966 2965 2964 2963 2963 2962 2962 2962 2962 2962 2962 2962 2962 2962 2963 2963 2963 2963 2963
3014 3013 3013 3012 3011 3010 3009 3009 3008 3007 3006 3005 3005 3004 3003 3002 3001 3000 3000 2999 2998 2998 2997 2996 2996 2995 2995 2994 2994 2993 2992 2992 2991 2990 2990 2989 2988 2987 2986 2985 2985 2984 2983 2983 2982 2981 2981 2980 2979 2978 2977 2976 2975 2975 2974 2973 2972 2971 2970 2970 2969 2968 2967 2966 2965 2965 2964 2963 2962 2962 2961 2960 2960 2960 2960 2959 2959 2959 2959 2959 2959 2959 2960 2960 2960 2960
3011 3011 3010 3009 3008 3007 3006 3005 3005 3004 3003 3002 3002 3001 3000 2999 2998 2998 2997 2996 2995 2995 2994 2994 2993 2993 2993 2992 2991 2990 2990 2989 2989 2988 2987 2987 2986 2985 2984 2983 2982 2982 2981 2980 2980 2979 2978 2978 2977 2976 2975 2974 2973 2972 2971 2970 2970 2969 2968 2967 2966 2965 2964 2964 2963 2962 2961 2960 2960 2959 2958 2958 2957 2957 2957 2957 2957 2957 2956 2956 2956 2956 2956 2956 2957 2957
3009 3008 3007 3006 3005 3005 3004 3003 3002 3001 3000 3000 2999 2998 2997 2996 2996 2995 2994 2994 2993 2992 2992 2991 2991 2990 2990 2990 2989 2988 2988 2987 2986 2985 2985 2984 2984 2983 2982 2981 2980 2979 2979 2978 2977 2977 2976 2975 2975 2974 2973 2972 2971 2970 2969 2968 2967 2966 2965 2965 2964 2963 2962 2961 2960 2959 2958 2958 2957 2956 2956 2955 2955 2955 2955 2954 2954 2954 2954 2954 2954 2953 2953 2954 2954 2954
3006 3005 3005 3004 3003 3002 3001 3000 2999 2998 2997 2997 2996 2995 2994 2994 2993 2992 2991 2991 2990 2990 2989 2989 2988 2988 2987 2987 2986 2985 2985 2984 2984 2983 2982 2981 2981 2980 2980 2979 2978 2977 2976 2976 2975 2975 2974 2973 2972 2971 2970 2970 2969 2968 2967 2966 2965 2964 2963 2962 2961 2960 2960 2959 2958 2957 2956 2955 2955 2954 2953 2953 2953 2952 2952 2952 2952 2952 2952 2951 2951 2951 2951 2951 2951 2951
3004 3003 3002 3001 3000 2999 2998 2997 2996 2995 2995 2994 2993 2992 2991 2991 2990 2990 2989 2988 2988 2987 2987 2986 2986 2985 2985 2984 2984 2983 2982 2982 2981 2980 2979 2978 2978 2977 2977 2976 2975 2975 2974 2974 2973 2972 2971 2971 2970 2969 2968 2967 2966 2965 2965 2964 2963 2962 2961 2960 2959 2958 2957 2956 2955 2954 2954 2953 2952 2951 2951 2950 2950 2950 2949 2949 2949 2949 2949 2949 2949 2949 2948 2948 2948 2948
3001 3000 2999 2998 2997 2997 2995 2995 2994 2993 2992 2991 2990 2990 2989 2988 2987 2987 2986 2985 2985 2985 2984 2984 2984 2983 2983 2982 2981 2980 2980 2979 2978 2977 2976 2975 2975 2974 2974 2973 2973 2972 2971 2971 2970 2970 2969 2969 2968 2967 2966 2965 2964 2963 2962 2961 2960 2960 2959 2958 2957 2955 2955 2954 2953 2952 2951 2950 2950 2949 2949 2948 2947 2947 2946 2946 2946 2946 2946 2947 2947 2946 2946 2946 2945 2945
2998 2997 2996 2995 2995 2994 2993 2992 2991 2990 2989 2989 2988 2987 2986 2985 2985 2984 2984 2983 2982 2982 2982 2981 2981 2980 2980 2980 2979 2978 2977 2977 2976 2975 2974 2973 2972 2971 2971 2970 2970 2969 2969 2968 2967 2967 2966 2966 2965 2965 2964 2963 2961 2960 2960 2959 2958 2957 2956 2955 2954 2953 2952 2951 2950 2950 2949 2948 2947 2947 2946 2945 2945 2944 2944 2943 2943 2943 2944 2944 2944 2944 2944 2944 2943 2943